STARLINK-2485 (48142 NORAD) Tracking and Keplerian Element Data

This shows tracking and keplerian element data for the satellite.

Feedback or suggestion? Click here.




ElementValue
Catalog48142
NameSTARLINK-2485
Epoch Orbit180
Epoch Day136.75001157
Epoch Year2021
RAAN146.2435
Inclination53.0477
Eccentricity0.0002518
Argument of Perigee28.0518
Mean Anonmoly3.0951
Mean Motion15.73209572
Decay Rate-0.00011807
L11 48142U 21027BC 21136.75001157 -.00011807 00000-0 -79748-4 0 9998
L22 48142 53.0477 146.2435 0002518 28.0518 3.0951 15.73209572 1800

Live tracking and technical data element details for STARLINK-2485 (NORAD 48142). STARLINK-2485 can be tracked NOW for your location showing map with azimuth and elevation plus other details from your city location.

Track the satellite on the map from your city or location and see movement details for azimuth, elevation, latitude, longitude, range, height, and movement on the map or in text.







IsCatalogInMostPopularTable: catalog: 48142, numindb: 13
Update: records affected: 1



GetName: 48142 STARLINK-2485

Hit Count: updated at: Mon, 17 May 2021 16:46:34 GMT